Time,TemperatureF,DewpointF,PressureIn,WindDirection,WindDirectionDegrees,WindSpeedMPH,WindSpeedGustMPH,Humidity,HourlyPrecipIn,Conditions,Clouds,dailyrainin,SoftwareType,DateUTC
2013-10-13 00:00:00,44.6,42.2,-100.00,ESE,111,0.0,0.0,91,0.00,n/a,n/a,-99.99,Henriksen +1-Wire,2013-10-13 04:00:00,
2013-10-13 00:10:00,44.6,39.7,-100.00,ESE,111,0.0,0.0,82,0.00,n/a,n/a,-99.99,Henriksen +1-Wire,2013-10-13 04:10:00,
2013-10-13 00:20:00,44.5,36.4,-100.00,ESE,111,0.0,0.0,72,0.00,n/a,n/a,-99.99,Henriksen +1-Wire,2013-10-13 04:20:00,
2013-10-13 00:30:00,44.5,41.6,-100.00,ESE,111,0.0,0.0,89,0.00,n/a,n/a,-99.99,Henriksen +1-Wire,2013-10-13 04:30:00,
2013-10-13 00:40:00,44.5,43.5,-100.00,ESE,111,0.0,0.0,96,0.01,n/a,n/a,-99.99,Henriksen +1-Wire,2013-10-13 04:40:00,
2013-10-13 00:50:00,44.3,44.0,-100.00,ESE,111,0.0,0.0,98,0.01,n/a,n/a,-99.99,Henriksen +1-Wire,2013-10-13 04:50:00,
2013-10-13 01:00:00,43.8,43.7,-100.00,ESE,111,0.0,0.0,99,0.01,n/a,n/a,-99.99,Henriksen +1-Wire,2013-10-13 05:00:00,
2013-10-13 01:10:00,43.8,43.7,-100.00,ESE,111,0.0,0.0,99,0.01,n/a,n/a,-99.99,Henriksen +1-Wire,2013-10-13 05:10:00,
2013-10-13 01:20:00,43.6,43.5,-100.00,ESE,111,0.0,0.0,99,0.01,n/a,n/a,-99.99,Henriksen +1-Wire,2013-10-13 05:20:00,
2013-10-13 01:30:00,43.5,43.5,-100.00,ESE,111,0.0,0.0,100,0.01,n/a,n/a,-99.99,Henriksen +1-Wire,2013-10-13 05:30:00,
2013-10-13 01:40:00,43.2,43.2,-100.00,ESE,111,0.0,0.0,100,0.00,n/a,n/a,-99.99,Henriksen +1-Wire,2013-10-13 05:40:00,
2013-10-13 01:50:00,43.1,43.1,-100.00,ESE,111,0.0,0.0,100,0.00,n/a,n/a,-99.99,Henriksen +1-Wire,2013-10-13 05:50:00,
2013-10-13 02:00:00,43.0,43.0,-100.00,ESE,111,0.0,0.0,100,0.00,n/a,n/a,-99.99,Henriksen +1-Wire,2013-10-13 06:00:00,
2013-10-13 02:10:00,42.8,42.8,-100.00,ESE,111,0.0,0.0,100,0.00,n/a,n/a,-99.99,Henriksen +1-Wire,2013-10-13 06:10:00,
2013-10-13 02:20:00,42.7,42.7,-100.00,ESE,111,0.0,0.0,100,0.00,n/a,n/a,-99.99,Henriksen +1-Wire,2013-10-13 06:20:00,
2013-10-13 02:30:00,42.7,42.7,-100.00,ESE,111,0.0,0.0,100,0.00,n/a,n/a,-99.99,Henriksen +1-Wire,2013-10-13 06:30:00,
2013-10-13 02:40:00,42.7,42.7,-100.00,ESE,111,0.0,0.0,100,0.00,n/a,n/a,-99.99,Henriksen +1-Wire,2013-10-13 06:40:00,
2013-10-13 02:50:00,42.2,42.2,-100.00,ESE,111,0.0,0.0,100,0.00,n/a,n/a,-99.99,Henriksen +1-Wire,2013-10-13 06:50:00,
2013-10-13 03:00:00,42.2,42.2,-100.00,ESE,111,0.0,0.0,100,0.00,n/a,n/a,-99.99,Henriksen +1-Wire,2013-10-13 07:00:00,
2013-10-13 03:10:00,42.1,42.1,-100.00,ESE,111,0.0,0.0,100,0.00,n/a,n/a,-99.99,Henriksen +1-Wire,2013-10-13 07:10:00,
2013-10-13 03:20:00,42.1,42.1,-100.00,ESE,111,0.0,0.0,100,0.00,n/a,n/a,-99.99,Henriksen +1-Wire,2013-10-13 07:20:00,
2013-10-13 03:30:00,42.2,42.2,-100.00,ESE,111,0.0,0.0,100,0.00,n/a,n/a,-99.99,Henriksen +1-Wire,2013-10-13 07:30:00,
2013-10-13 03:40:00,42.5,42.5,-100.00,ESE,111,0.0,0.0,100,0.00,n/a,n/a,-99.99,Henriksen +1-Wire,2013-10-13 07:40:00,
2013-10-13 03:50:00,42.5,42.5,-100.00,ESE,111,0.0,0.0,100,0.00,n/a,n/a,-99.99,Henriksen +1-Wire,2013-10-13 07:50:00,
2013-10-13 04:00:00,42.5,42.5,-100.00,ESE,111,0.0,0.0,100,0.00,n/a,n/a,-99.99,Henriksen +1-Wire,2013-10-13 08:00:00,
2013-10-13 04:10:00,42.7,42.7,-100.00,ESE,111,0.0,0.0,100,0.00,n/a,n/a,-99.99,Henriksen +1-Wire,2013-10-13 08:10:00,
2013-10-13 04:20:00,42.9,42.9,-100.00,ESE,111,0.0,0.0,100,0.00,n/a,n/a,-99.99,Henriksen +1-Wire,2013-10-13 08:20:00,
2013-10-13 04:30:00,42.5,42.5,-100.00,ESE,111,0.0,0.0,100,0.00,n/a,n/a,-99.99,Henriksen +1-Wire,2013-10-13 08:30:00,
2013-10-13 04:40:00,42.4,42.4,-100.00,ESE,111,0.0,0.0,100,0.00,n/a,n/a,-99.99,Henriksen +1-Wire,2013-10-13 08:40:00,
2013-10-13 04:50:00,42.2,42.2,-100.00,ESE,111,0.0,0.0,100,0.00,n/a,n/a,-99.99,Henriksen +1-Wire,2013-10-13 08:50:00,
2013-10-13 05:00:00,42.0,42.0,-100.00,ESE,111,0.0,0.0,100,0.00,n/a,n/a,-99.99,Henriksen +1-Wire,2013-10-13 09:00:00,
2013-10-13 05:10:00,41.6,41.6,-100.00,ESE,111,0.0,0.0,100,0.00,n/a,n/a,-99.99,Henriksen +1-Wire,2013-10-13 09:10:00,
2013-10-13 05:20:00,41.3,39.9,-100.00,ESE,111,0.0,0.0,94,0.00,n/a,n/a,-99.99,Henriksen +1-Wire,2013-10-13 09:20:00,
2013-10-13 05:30:00,41.1,32.9,-100.00,ESE,111,0.0,0.0,72,0.00,n/a,n/a,-99.99,Henriksen +1-Wire,2013-10-13 09:30:00,
2013-10-13 05:40:00,40.9,35.7,-100.00,ESE,111,0.0,0.0,81,0.00,n/a,n/a,-99.99,Henriksen +1-Wire,2013-10-13 09:40:00,
2013-10-13 05:50:00,40.8,39.1,-100.00,ESE,111,0.0,0.0,93,0.00,n/a,n/a,-99.99,Henriksen +1-Wire,2013-10-13 09:50:00,
2013-10-13 06:00:00,41.1,40.4,-100.00,ESE,111,0.0,0.0,97,0.00,n/a,n/a,-99.99,Henriksen +1-Wire,2013-10-13 10:00:00,
2013-10-13 06:10:00,41.4,41.2,-100.00,ESE,111,0.0,0.0,99,0.00,n/a,n/a,-99.99,Henriksen +1-Wire,2013-10-13 10:10:00,
2013-10-13 06:20:00,41.2,41.1,-100.00,ESE,111,0.0,0.0,99,0.00,n/a,n/a,-99.99,Henriksen +1-Wire,2013-10-13 10:20:00,
2013-10-13 06:30:00,41.2,41.1,-100.00,ESE,111,0.0,0.0,99,0.00,n/a,n/a,-99.99,Henriksen +1-Wire,2013-10-13 10:30:00,
2013-10-13 06:40:00,41.2,41.2,-100.00,ESE,111,0.0,0.0,100,0.00,n/a,n/a,-99.99,Henriksen +1-Wire,2013-10-13 10:40:00,
2013-10-13 06:50:00,41.0,41.0,-100.00,ESE,111,0.0,0.0,100,0.00,n/a,n/a,-99.99,Henriksen +1-Wire,2013-10-13 10:50:00,
2013-10-13 07:00:00,40.9,40.9,-100.00,ESE,111,0.0,0.0,100,0.00,n/a,n/a,-99.99,Henriksen +1-Wire,2013-10-13 11:00:00,
2013-10-13 07:10:00,40.7,38.6,-100.00,ESE,111,0.0,0.0,92,0.00,n/a,n/a,-99.99,Henriksen +1-Wire,2013-10-13 11:10:00,
2013-10-13 07:20:00,40.9,39.0,-100.00,ESE,111,0.0,0.0,92,0.00,n/a,n/a,-99.99,Henriksen +1-Wire,2013-10-13 11:20:00,
2013-10-13 07:30:00,40.9,40.2,-100.00,ESE,111,0.0,0.0,97,0.00,n/a,n/a,-99.99,Henriksen +1-Wire,2013-10-13 11:30:00,
2013-10-13 07:40:00,40.9,40.7,-100.00,ESE,111,0.0,0.0,99,0.00,n/a,n/a,-99.99,Henriksen +1-Wire,2013-10-13 11:40:00,
2013-10-13 07:50:00,41.2,41.1,-100.00,ESE,111,0.0,0.0,99,0.00,n/a,n/a,-99.99,Henriksen +1-Wire,2013-10-13 11:50:00,
2013-10-13 08:00:00,41.5,41.4,-100.00,ESE,111,0.0,0.0,99,0.00,n/a,n/a,-99.99,Henriksen +1-Wire,2013-10-13 12:00:00,
2013-10-13 08:10:00,42.5,42.5,-100.00,ESE,111,0.0,0.0,100,0.00,n/a,n/a,-99.99,Henriksen +1-Wire,2013-10-13 12:10:00,
2013-10-13 08:20:00,43.3,42.2,-100.00,ESE,111,0.0,0.0,96,0.00,n/a,n/a,-99.99,Henriksen +1-Wire,2013-10-13 12:20:00,
2013-10-13 08:30:00,44.3,41.1,-100.00,ESE,111,0.0,0.0,88,0.00,n/a,n/a,-99.99,Henriksen +1-Wire,2013-10-13 12:30:00,
2013-10-13 08:40:00,44.9,43.8,-100.00,ESE,111,0.0,0.0,96,0.00,n/a,n/a,-99.99,Henriksen +1-Wire,2013-10-13 12:40:00,
2013-10-13 08:50:00,45.9,45.5,-100.00,ESE,111,0.0,0.0,98,0.00,n/a,n/a,-99.99,Henriksen +1-Wire,2013-10-13 12:50:00,
2013-10-13 09:00:00,46.9,46.8,-100.00,ESE,111,0.0,0.0,99,0.00,n/a,n/a,-99.99,Henriksen +1-Wire,2013-10-13 13:00:00,
2013-10-13 09:10:00,47.4,47.3,-100.00,ESE,111,0.0,0.0,99,0.00,n/a,n/a,-99.99,Henriksen +1-Wire,2013-10-13 13:10:00,
2013-10-13 09:20:00,48.1,44.5,-100.00,ESE,111,0.0,0.0,87,0.00,n/a,n/a,-99.99,Henriksen +1-Wire,2013-10-13 13:20:00,
2013-10-13 09:30:00,48.7,47.4,-100.00,ESE,111,0.0,0.0,95,0.00,n/a,n/a,-99.99,Henriksen +1-Wire,2013-10-13 13:30:00,
2013-10-13 09:40:00,49.3,46.7,-100.00,ESE,111,0.0,0.0,90,0.00,n/a,n/a,-99.99,Henriksen +1-Wire,2013-10-13 13:40:00,
2013-10-13 09:50:00,50.0,49.0,-100.00,ESE,111,0.0,0.0,96,0.00,n/a,n/a,-99.99,Henriksen +1-Wire,2013-10-13 13:50:00,
2013-10-13 10:00:00,50.5,50.1,-100.00,ESE,111,0.0,0.0,98,0.00,n/a,n/a,-99.99,Henriksen +1-Wire,2013-10-13 14:00:00,
2013-10-13 10:10:00,51.0,50.9,-100.00,ESE,111,0.0,0.0,99,0.00,n/a,n/a,-99.99,Henriksen +1-Wire,2013-10-13 14:10:00,
2013-10-13 10:20:00,51.4,51.4,-100.00,ESE,111,0.0,0.0,99,0.00,n/a,n/a,-99.99,Henriksen +1-Wire,2013-10-13 14:20:00,
2013-10-13 10:30:00,51.7,51.7,-100.00,SSE,147,0.1,5.6,99,0.00,n/a,n/a,-99.99,Henriksen +1-Wire,2013-10-13 14:30:00,
2013-10-13 10:40:00,52.1,51.9,-100.00,SSE,156,0.0,0.8,99,0.00,n/a,n/a,-99.99,Henriksen +1-Wire,2013-10-13 14:40:00,
2013-10-13 10:50:00,52.2,49.1,-100.00,SSE,156,0.1,0.8,89,0.00,n/a,n/a,-99.99,Henriksen +1-Wire,2013-10-13 14:50:00,
2013-10-13 11:00:00,52.5,49.7,-100.00,SE,132,0.0,1.6,90,0.00,n/a,n/a,-99.99,Henriksen +1-Wire,2013-10-13 15:00:00,
2013-10-13 11:10:00,53.0,51.3,-100.00,SSE,165,0.0,3.2,93,0.00,n/a,n/a,-99.99,Henriksen +1-Wire,2013-10-13 15:10:00,
2013-10-13 11:20:00,52.9,51.0,-100.00,SW,230,0.4,3.2,93,0.00,n/a,n/a,-99.99,Henriksen +1-Wire,2013-10-13 15:20:00,
2013-10-13 11:30:00,53.0,51.0,-100.00,SE,128,0.1,1.6,92,0.00,n/a,n/a,-99.99,Henriksen +1-Wire,2013-10-13 15:30:00,
2013-10-13 11:40:00,53.3,50.9,-100.00,ESE,117,0.0,2.4,91,0.00,n/a,n/a,-99.99,Henriksen +1-Wire,2013-10-13 15:40:00,
2013-10-13 11:50:00,53.5,50.9,-100.00,ESE,115,0.0,0.8,90,0.00,n/a,n/a,-99.99,Henriksen +1-Wire,2013-10-13 15:50:00,
2013-10-13 12:00:00,53.4,50.5,-100.00,SE,124,0.0,3.2,89,0.00,n/a,n/a,-99.99,Henriksen +1-Wire,2013-10-13 16:00:00,
2013-10-13 12:10:00,53.8,50.6,-100.00,SE,133,0.0,3.2,88,0.00,n/a,n/a,-99.99,Henriksen +1-Wire,2013-10-13 16:10:00,
2013-10-13 12:20:00,53.9,50.4,-100.00,SE,129,0.2,4.0,88,0.00,n/a,n/a,-99.99,Henriksen +1-Wire,2013-10-13 16:20:00,
2013-10-13 12:30:00,53.9,50.5,-100.00,SE,134,0.1,1.6,88,0.00,n/a,n/a,-99.99,Henriksen +1-Wire,2013-10-13 16:30:00,
2013-10-13 12:40:00,54.1,50.6,-100.00,SE,125,0.0,4.1,87,0.00,n/a,n/a,-99.99,Henriksen +1-Wire,2013-10-13 16:40:00,
2013-10-13 12:50:00,54.3,50.6,-100.00,SE,134,0.0,0.8,87,0.00,n/a,n/a,-99.99,Henriksen +1-Wire,2013-10-13 16:50:00,
2013-10-13 13:00:00,54.8,50.9,-100.00,SE,134,0.0,0.8,86,0.00,n/a,n/a,-99.99,Henriksen +1-Wire,2013-10-13 17:00:00,
2013-10-13 13:10:00,54.6,50.6,-100.00,SE,134,0.0,2.4,86,0.00,n/a,n/a,-99.99,Henriksen +1-Wire,2013-10-13 17:10:00,
2013-10-13 13:20:00,54.3,49.8,-100.00,SE,135,2.8,4.9,84,0.00,n/a,n/a,-99.99,Henriksen +1-Wire,2013-10-13 17:20:00,
2013-10-13 13:30:00,54.8,50.5,-100.00,SE,134,0.0,0.8,85,0.00,n/a,n/a,-99.99,Henriksen +1-Wire,2013-10-13 17:30:00,
2013-10-13 13:40:00,54.8,50.6,-100.00,SE,129,0.2,4.8,85,0.00,n/a,n/a,-99.99,Henriksen +1-Wire,2013-10-13 17:40:00,
2013-10-13 13:50:00,54.7,50.0,-100.00,SE,138,1.3,4.9,83,0.00,n/a,n/a,-99.99,Henriksen +1-Wire,2013-10-13 17:50:00,
2013-10-13 14:00:00,55.0,49.6,-100.00,SE,134,0.0,0.8,81,0.00,n/a,n/a,-99.99,Henriksen +1-Wire,2013-10-13 18:00:00,
2013-10-13 14:10:00,55.1,49.3,-100.00,SE,134,0.0,0.9,80,0.00,n/a,n/a,-99.99,Henriksen +1-Wire,2013-10-13 18:10:00,
2013-10-13 14:20:00,55.4,48.7,-100.00,SE,134,0.1,3.2,77,0.00,n/a,n/a,-99.99,Henriksen +1-Wire,2013-10-13 18:20:00,
2013-10-13 14:30:00,55.2,47.5,-100.00,SE,129,1.9,7.3,74,0.00,n/a,n/a,-99.99,Henriksen +1-Wire,2013-10-13 18:30:00,
2013-10-13 14:40:00,55.4,47.5,-100.00,ESE,108,0.0,5.7,74,0.00,n/a,n/a,-99.99,Henriksen +1-Wire,2013-10-13 18:40:00,
2013-10-13 14:50:00,55.4,47.8,-100.00,ESE,115,0.2,4.8,75,0.00,n/a,n/a,-99.99,Henriksen +1-Wire,2013-10-13 18:50:00,
2013-10-13 15:00:00,55.8,48.4,-100.00,ESE,112,0.4,4.8,76,0.00,n/a,n/a,-99.99,Henriksen +1-Wire,2013-10-13 19:00:00,
2013-10-13 15:10:00,55.7,48.6,-100.00,ESE,122,0.0,4.0,76,0.00,n/a,n/a,-99.99,Henriksen +1-Wire,2013-10-13 19:10:00,
2013-10-13 15:20:00,55.3,48.0,-100.00,SE,128,0.7,5.7,76,0.00,n/a,n/a,-99.99,Henriksen +1-Wire,2013-10-13 19:20:00,
2013-10-13 15:30:00,55.4,48.0,-100.00,SE,146,0.1,5.7,76,0.00,n/a,n/a,-99.99,Henriksen +1-Wire,2013-10-13 19:30:00,
2013-10-13 15:40:00,55.5,48.7,-100.00,SSE,152,0.9,4.1,77,0.00,n/a,n/a,-99.99,Henriksen +1-Wire,2013-10-13 19:40:00,
2013-10-13 15:50:00,56.0,48.7,-100.00,ESE,117,0.1,6.4,76,0.00,n/a,n/a,-99.99,Henriksen +1-Wire,2013-10-13 19:50:00,
2013-10-13 16:00:00,55.1,48.0,-100.00,ESE,116,0.0,0.8,76,0.00,n/a,n/a,-99.99,Henriksen +1-Wire,2013-10-13 20:00:00,
2013-10-13 16:10:00,54.3,47.8,-100.00,SE,134,0.0,0.0,78,0.00,n/a,n/a,-99.99,Henriksen +1-Wire,2013-10-13 20:10:00,
2013-10-13 16:20:00,54.0,48.3,-100.00,SE,134,0.0,0.0,80,0.00,n/a,n/a,-99.99,Henriksen +1-Wire,2013-10-13 20:20:00,
2013-10-13 16:30:00,54.7,49.0,-100.00,SE,129,1.5,5.7,80,0.00,n/a,n/a,-99.99,Henriksen +1-Wire,2013-10-13 20:30:00,
2013-10-13 16:40:00,55.3,48.4,-100.00,ESE,112,0.0,3.2,77,0.00,n/a,n/a,-99.99,Henriksen +1-Wire,2013-10-13 20:40:00,
2013-10-13 16:50:00,54.9,47.6,-100.00,ESE,121,0.5,4.9,76,0.00,n/a,n/a,-99.99,Henriksen +1-Wire,2013-10-13 20:50:00,
2013-10-13 17:00:00,54.6,47.2,-100.00,SE,134,0.0,0.0,75,0.00,n/a,n/a,-99.99,Henriksen +1-Wire,2013-10-13 21:00:00,
2013-10-13 17:10:00,53.8,47.1,-100.00,SE,134,0.0,0.0,77,0.00,n/a,n/a,-99.99,Henriksen +1-Wire,2013-10-13 21:10:00,
2013-10-13 17:20:00,52.7,47.2,-100.00,SE,134,0.0,0.0,81,0.00,n/a,n/a,-99.99,Henriksen +1-Wire,2013-10-13 21:20:00,
2013-10-13 17:30:00,51.9,47.3,-100.00,SE,134,0.0,0.0,84,0.00,n/a,n/a,-99.99,Henriksen +1-Wire,2013-10-13 21:30:00,
2013-10-13 17:40:00,51.0,47.0,-100.00,SE,134,0.0,0.0,86,0.00,n/a,n/a,-99.99,Henriksen +1-Wire,2013-10-13 21:40:00,
2013-10-13 17:50:00,50.4,46.9,-100.00,SE,134,0.0,0.4,87,0.00,n/a,n/a,-99.99,Henriksen +1-Wire,2013-10-13 21:50:00,
2013-10-13 18:00:00,49.7,46.6,-100.00,SE,134,0.0,0.0,89,0.00,n/a,n/a,-99.99,Henriksen +1-Wire,2013-10-13 22:00:00,
2013-10-13 18:10:00,49.0,46.6,-100.00,SE,134,0.0,0.0,91,0.00,n/a,n/a,-99.99,Henriksen +1-Wire,2013-10-13 22:10:00,
2013-10-13 18:20:00,48.6,46.4,-100.00,SE,134,0.0,0.0,92,0.00,n/a,n/a,-99.99,Henriksen +1-Wire,2013-10-13 22:20:00,
2013-10-13 18:30:00,48.1,46.3,-100.00,SE,134,0.0,0.0,93,0.00,n/a,n/a,-99.99,Henriksen +1-Wire,2013-10-13 22:30:00,
2013-10-13 18:40:00,47.6,46.0,-100.00,SE,134,0.0,0.0,94,0.00,n/a,n/a,-99.99,Henriksen +1-Wire,2013-10-13 22:40:00,
2013-10-13 18:50:00,47.0,45.8,-100.00,SE,134,0.0,0.0,95,0.00,n/a,n/a,-99.99,Henriksen +1-Wire,2013-10-13 22:50:00,
2013-10-13 19:00:00,46.5,45.7,-100.00,SE,134,0.0,0.0,96,0.00,n/a,n/a,-99.99,Henriksen +1-Wire,2013-10-13 23:00:00,
2013-10-13 19:10:00,46.1,45.6,-100.00,SE,134,0.0,0.0,98,0.00,n/a,n/a,-99.99,Henriksen +1-Wire,2013-10-13 23:10:00,
2013-10-13 19:20:00,45.8,45.6,-100.00,SE,134,0.0,0.0,99,0.00,n/a,n/a,-99.99,Henriksen +1-Wire,2013-10-13 23:20:00,
2013-10-13 19:30:00,45.5,45.4,-100.00,SE,134,0.0,0.0,99,0.00,n/a,n/a,-99.99,Henriksen +1-Wire,2013-10-13 23:30:00,
2013-10-13 19:40:00,45.2,45.2,-100.00,SE,134,0.0,0.0,99,0.00,n/a,n/a,-99.99,Henriksen +1-Wire,2013-10-13 23:40:00,
2013-10-13 19:50:00,44.7,44.7,-100.00,SE,134,0.0,0.0,100,0.00,n/a,n/a,-99.99,Henriksen +1-Wire,2013-10-13 23:50:00,
2013-10-13 20:00:00,44.2,44.2,-100.00,SE,134,0.0,0.0,100,0.00,n/a,n/a,-99.99,Henriksen +1-Wire,2013-10-14 00:00:00,
2013-10-13 20:10:00,44.0,44.0,-100.00,SE,134,0.0,0.0,100,0.00,n/a,n/a,-99.99,Henriksen +1-Wire,2013-10-14 00:10:00,
2013-10-13 20:20:00,43.8,43.8,-100.00,SE,134,0.0,0.0,100,0.00,n/a,n/a,-99.99,Henriksen +1-Wire,2013-10-14 00:20:00,
2013-10-13 20:30:00,43.4,43.4,-100.00,SE,134,0.0,0.0,100,0.00,n/a,n/a,-99.99,Henriksen +1-Wire,2013-10-14 00:30:00,
2013-10-13 20:40:00,42.8,42.8,-100.00,SE,134,0.0,0.0,100,0.00,n/a,n/a,-99.99,Henriksen +1-Wire,2013-10-14 00:40:00,
2013-10-13 20:50:00,42.6,42.6,-100.00,SE,134,0.0,0.0,100,0.00,n/a,n/a,-99.99,Henriksen +1-Wire,2013-10-14 00:50:00,
2013-10-13 21:00:00,42.3,42.3,-100.00,SE,134,0.0,0.0,100,0.00,n/a,n/a,-99.99,Henriksen +1-Wire,2013-10-14 01:00:00,
2013-10-13 21:10:00,42.2,42.2,-100.00,SE,134,0.0,0.0,100,0.00,n/a,n/a,-99.99,Henriksen +1-Wire,2013-10-14 01:10:00,
2013-10-13 21:30:00,41.6,41.6,-100.00,SE,134,0.0,0.0,100,0.00,n/a,n/a,-99.99,Henriksen +1-Wire,2013-10-14 01:30:00,
2013-10-13 21:40:00,41.5,41.5,-100.00,SE,134,0.0,0.0,100,0.00,n/a,n/a,-99.99,Henriksen +1-Wire,2013-10-14 01:40:00,
2013-10-13 21:50:00,41.2,41.2,-100.00,SE,134,0.0,0.0,100,0.00,n/a,n/a,-99.99,Henriksen +1-Wire,2013-10-14 01:50:00,
2013-10-13 22:00:00,41.0,41.0,-100.00,SE,134,0.0,0.0,100,0.00,n/a,n/a,-99.99,Henriksen +1-Wire,2013-10-14 02:00:00,
2013-10-13 22:10:00,41.0,41.0,-100.00,SE,134,0.0,0.0,100,0.00,n/a,n/a,-99.99,Henriksen +1-Wire,2013-10-14 02:10:00,
2013-10-13 22:20:00,40.9,40.9,-100.00,SE,134,0.0,0.0,100,0.00,n/a,n/a,-99.99,Henriksen +1-Wire,2013-10-14 02:20:00,
2013-10-13 22:30:00,40.7,40.7,-100.00,SE,134,0.0,0.0,100,0.00,n/a,n/a,-99.99,Henriksen +1-Wire,2013-10-14 02:30:00,
2013-10-13 22:40:00,40.3,40.3,-100.00,SE,134,0.0,0.0,100,0.00,n/a,n/a,-99.99,Henriksen +1-Wire,2013-10-14 02:40:00,
2013-10-13 22:50:00,40.2,40.2,-100.00,SE,134,0.0,0.0,100,0.00,n/a,n/a,-99.99,Henriksen +1-Wire,2013-10-14 02:50:00,
2013-10-13 23:10:00,39.7,39.7,-100.00,SE,134,0.0,0.0,100,0.00,n/a,n/a,-99.99,Henriksen +1-Wire,2013-10-14 03:10:00,
2013-10-13 23:20:00,39.7,39.6,-100.00,SE,134,0.0,0.0,100,0.00,n/a,n/a,-99.99,Henriksen +1-Wire,2013-10-14 03:20:00,
2013-10-13 23:30:00,39.4,39.4,-100.00,SE,134,0.0,0.0,100,0.00,n/a,n/a,-99.99,Henriksen +1-Wire,2013-10-14 03:30:00,
2013-10-13 23:40:00,39.4,39.4,-100.00,SE,134,0.0,0.0,100,0.00,n/a,n/a,-99.99,Henriksen +1-Wire,2013-10-14 03:40:00,
2013-10-13 23:50:00,39.1,39.1,-100.00,SE,134,0.0,0.0,100,0.00,n/a,n/a,-99.99,Henriksen +1-Wire,2013-10-14 03:50:00,